Location: Highland Meadows Observing Site
(48.4428°N, 114.5461°W)
Time: 12:20:53
(UTC-06:00)

Gurwin Techsat 1B - Visible Passes

Search period start: 23 September 2017 00:00
Search period end: 03 October 2017 00:00
Orbit: 811 x 815 km, 98.6° (Epoch: 22 September)

Date Brightness Start Highest point End Pass type
(mag) Time Alt. Az. Time Alt. Az. Time Alt. Az.
23 Sep 9.7 03:39:06 10° NNE 03:42:35 42° NNE 03:42:35 42° NNE visible
23 Sep 10.1 05:20:06 10° NNW 05:23:47 20° WNW 05:23:47 20° WNW visible
24 Sep 10.2 03:16:23 10° NNE 03:19:23 31° NE 03:19:23 31° NE visible
24 Sep 9.8 04:56:48 10° N 05:00:35 27° NW 05:00:35 27° NW visible
25 Sep 10.7 02:53:50 10° NNE 02:56:11 22° NE 02:56:11 22° NE visible
25 Sep 9.6 04:33:41 10° N 04:37:23 35° NNW 04:37:23 35° NNW visible
26 Sep 11.1 02:31:32 10° NE 02:32:59 15° NE 02:32:59 15° NE visible
26 Sep 9.6 04:10:41 10° N 04:14:11 40° N 04:14:11 40° N visible
26 Sep 10.6 05:53:00 10° NNW 05:54:52 12° NW 05:55:23 12° WNW visible
27 Sep 11.5 02:09:46 10° NE 02:09:46 10° NE 02:09:46 10° NE visible
27 Sep 9.8 03:47:48 10° NNE 03:50:59 38° NNE 03:50:59 38° NNE visible
27 Sep 10.3 05:29:04 10° NNW 05:32:11 17° NW 05:32:11 17° NW visible
28 Sep 10.3 03:25:03 10° NNE 03:27:47 30° NE 03:27:47 30° NE visible
28 Sep 10.0 05:05:40 10° N 05:08:59 23° NW 05:08:59 23° NW visible
29 Sep 10.7 03:02:25 10° NNE 03:04:35 22° NE 03:04:35 22° NE visible
29 Sep 9.8 04:42:29 10° N 04:45:47 30° NNW 04:45:47 30° NNW visible
30 Sep 11.1 02:40:01 10° NE 02:41:22 16° NE 02:41:22 16° NE visible
30 Sep 9.8 04:19:26 10° N 04:22:35 34° NNW 04:22:35 34° NNW visible
30 Sep 10.7 06:02:56 10° NW 06:03:24 10° NW 06:03:46 10° NW visible
01 Oct 11.5 02:17:58 10° NE 02:18:10 11° NE 02:18:10 11° NE visible
01 Oct 10.0 03:56:31 10° NNE 03:59:22 33° N 03:59:22 33° N visible
01 Oct 10.5 05:38:06 10° NNW 05:40:34 15° NW 05:40:34 15° NW visible
02 Oct 10.4 03:33:42 10° NNE 03:36:10 28° NNE 03:36:10 28° NNE visible
02 Oct 10.2 05:14:34 10° N 05:17:22 20° NW 05:17:22 20° NW visible
